Location: Berlin
(38.3226°N, 75.2177°W)
Time: 21:57:14
(UTC+00:00)

Cosmos 2180 Rocket - Pass Details

Date: 26 October 2020
Orbit: 953 x 1005 km, 82.9° (Epoch: 25 November)

Event Time Altitude Azimuth Distance (km) Brightness Sun altitude
Rises 09:07:14 0° 353° (N) 3,695 7.5 -26.9°
Reaches altitude 10° 09:09:47 10° 354° (N) 2,735 6.8 -26.4°
Maximum altitude 09:16:04 87° 84° (E) 975 4.4 -25.1°
Drops below altitude 10° 09:22:13 10° 174° (S) 2,684 6.8 -23.9°
Sets 09:24:41 0° 174° (S) 3,621 7.5 -23.5°
